Location: Beekmeers
(50.8953°N, 3.6968°E)
Time: 16:42:22
(UTC+00:00)

H-2A R/B - Pass Details

Date: 13 August 2024
Orbit: 566 x 633 km, 98.4° (Epoch: 06 September)

Event Time Altitude Azimuth Distance (km) Brightness Sun altitude
Rises 23:00:35 0° 28° (NNE) 2,860 6.2 -23.9°
Reaches altitude 10° 23:03:25 10° 49° (NE) 1,965 5.0 -24.0°
Enters shadow 23:05:38 17° 80° (E) 1,572 4.1 -24.1°
